Tracking 29892 objects as of 21-Nov-2024
HD Live streaming from Space Station
objects crossing your sky now

THORAD AGENA D DEB

Track THORAD AGENA D DEB now!
10-day predictions


NORAD ID: 4658
Int'l Code: 1970-025AS
Perigee: 893.6 km
Apogee: 932.1 km
Inclination: 99.9 °
Period: 103.1 minutes
Semi major axis: 7283 km
RCS: 0.0674 m2 (small)
Launch date: April 8, 1970
Source: United States (US)
Launch site: AIR FORCE WESTERN TEST RANGE (AFWTR)

Note: This is SATELLITE DEBRIS
Your satellite tracking list
Your tracking list is empty




NASA's NSSDC Master Catalog

Two Line Element Set (TLE):
1 04658U 70025AS  24325.43349494  .00003050  00000-0  22335-2 0  9998
2 04658  99.9117 238.9531 0026450 293.3757  66.4621 13.96571197738221
Source of the keplerian elements: AFSPC